Terminal Aerodrome Forecast
Issued by NWS Boston, MA

Home | Current Version | Previous Version | Text Only | Print | Product List | Glossary On
Versions: 1 2 3 4 5 6 7 8 9 10 11 12 13 14 15 16 17 18 19 20 21 22 23 24 25 26 27 28 29 30 31 32 33 34 35 36 37 38 39 40 41 42 43 44 45 46 47 48 49 50
000
FTUS41 KBOX 181722
TAFBOS
TAF
KBOS 181722Z 1818/1924 06008KT P6SM OVC025
     FM190100 16005KT P6SM BKN035
     FM190600 22005KT P6SM BKN140
     FM191300 28009KT P6SM FEW250
     FM191700 31014G25KT P6SM FEW250=

USA.gov is the U.S. government's official web portal to all federal, state and local government web resources and services.